STARLINK-1862 (47149 NORAD) Tracking and Keplerian Element Data
This shows tracking and keplerian element data for the satellite.
Feedback or suggestion? Click here.
Element | Value |
Catalog | 47149 |
Name | STARLINK-1862 |
Epoch Orbit | 180 |
Epoch Day | 60.91667824 |
Epoch Year | 2021 |
RAAN | 253.7322 |
Inclination | 53.0535 |
Eccentricity | 0.0002574 |
Argument of Perigee | 61.1664 |
Mean Anonmoly | 204.749 |
Mean Motion | 15.06375232 |
Decay Rate | 0.00029716 |
L1 | 1 47149U 20088AD 21060.91667824 .00029716 00000-0 20067-2 0 9997 |
L2 | 2 47149 53.0535 253.7322 0002574 61.1664 204.7490 15.06375232 1803 |
Live tracking and technical data element details for STARLINK-1862 (NORAD 47149). STARLINK-1862 can be tracked NOW for your location showing map with azimuth and elevation plus other details from your city location.
Track the satellite on the map from your city or location and see movement details for azimuth, elevation, latitude, longitude, range, height, and movement on the map or in text.
IsCatalogInMostPopularTable: catalog: 47149, numindb: 34
Update: records affected: 1
GetName: 47149 STARLINK-1862
Hit Count: updated at: Tue, 02 Mar 2021 14:12:15 GMT